Forside
METAR-TAF:

METAR-TAF

Lufthavne :

Morris Municipal Airport (James R. Washburn Field)

Morris, Illinois, USA

Breddekreds: 41-25-31N, længdekreds: 088-25-07W, højde: 178 m

Aktuelle vejr

Denne rapport blev lavet for 20 minutter siden, kl. 12:35 UTC
Vind 3 kt fra nordøst
Temperatur 6°C
Fugtighed 75%
Tryk 1027 hPa
Sigt: 16.1 km
skyfri

METAR: KC09 111235Z AUTO 04003KT 10SM CLR 06/02 A3033 RMK AO2 T00580020

Tid: 07:55 (12:55 UTC)


TAF: fraværende

Vejrobservationer og prognoser fra mere end 4000 lufthavne (METAR og TAF).

De gule og røde prikker repræsenterer de meteorologiske stationer.

Flyt musen over at se navnet på stationen.

Så klik over at se vejr observationer og prognoser.

At skifte det kort: Klik på de grønne knapper med et sort kors for at zoome ind; på den grønne knap med en bindestreg for at zoome ud; eller på de grønne pile for tilstødende kort.


METAR-TAF: